Showing default

EMISAT, 44078

Orbit data source: Space-Track

EMISAT, 44078 is a payload satellite owned by ISRO (IN) in SSO that was launched on Mon, 01 Apr 2019 UTC via a PSLV-QL launch vehicle from the Sirharikota (SRI). Payload-class satellites include a variety of spacecraft equipped with specific instruments for various scientific and technological missions. These include communications satellites like Starlink; space stations such as the ISS; scientific satellites like the Hubble; Earth observation satellites from companies like Planet Labs, Umbra, and HawkEye 360; GPS; miniature CubeSats for education and research; and military/defense satellites.

Loading next visibility...
Identifier
44078, 2019-018A
Orbit
SSO
Country
Flag of ININ / IND
Related business
Manufacturer
ISRO
Mission
Operational Defense Sigint
Bus & Motor
SSB-2, AOCS
Mass
436 kg wet, ~380 kg dry
Launch date (UTC)
2019-04-01 (6 years ago)
Launch vehicle
PSLV-QL
Launch site
Sirharikota (SRI)
Object type
Payload
Rocket body
Debris
Shape & HBR
Box + 2 Pan, 3.0 m
Radar Cross Section
4.485 m², Large (>1 m²)

Expand to show TLE details & history
Last TLE update: 12 hours ago

TLE from 12 hours ago
0 EMISAT
1 44078U 19018A   25259.58151317  .00000192  00000-0  69704-4 0  9998
2 44078  98.5070 314.3037 0018139 325.4942  34.5069 14.43608799340584
Epoch: 2025-09-16T13:57Z
TLE epoch observation values (Epoch: 2025-09-16T13:57:22.737Z)
Latitude
-0.00009°
Longitude
109.18922°
Altitude
738.909 km
Speed
7.491 km/s
True Right ascension
20h 57m 12s
True Declination
0° 00' 00"
Sunlit
Object was in full shadow at epoch
Visualization orbit readout
Latitude
Unknown
Longitude
Unknown
Altitude
Unknown
Speed
Unknown
Apparent Right ascension
Unknown
Apparent Declination
Unknown
Sunlit
N/A
Visualization observer readout
Local Sidereal Time
18:16:31
Azimuth
Unknown
Elevation
Unknown
Doppler factor
Unknown
Orbital elements
Apogee altitude
756.636 km
Perigee altitude
730.799 km
Semi-major axis
7,121.854 km
Eccentricity
0.00181
Inclination
98.507°
RAAN
314.3037°
Arg. of periapsis
325.4942°
True anomaly
34.62487°
Mean anomaly
34.5069°
Eccentric anomaly
34.56586°
Mean motion
3.61122 °/min
Orbital period
99.69 mins
BSTAR
0.000069704
Loading maneuver chart data...
Computing Atmospheric mass density...

Documentation

Showing up to 5 results
|